Location: Gleizolles
(44.4833°N, 6.7667°E)
Time: 11:12:25
(UTC+00:00)

Cosmos 1570 Rocket - Pass Details

Date: 09 April 2020
Orbit: 764 x 787 km, 74.1° (Epoch: 03 June)

Event Time Altitude Azimuth Distance (km) Brightness Sun altitude
Rises 20:46:44 0° 340° (NNW) 3,290 8.3 -25.4°
Reaches altitude 10° 20:49:09 10° 342° (NNW) 2,355 7.3 -25.7°
Enters shadow 20:54:29 77° 65° (ENE) 808 3.9 -26.4°
